Total_Precipitation_Accumulation
0.61 0.51 0.58 0.55 0.44 0.51 0.75 0.62 0.51 0.35 0.33 0.37 0.35 0.37 0.37 0.32 0.28 0.23 0.20 0.20 0.18 0.18 0.19 0.21 0.22 0.27 0.33 0.37 0.42 0.47 0.47 0.46 0.47 0.48 0.51 0.52 0.51 0.50 0.51 0.53 0.54 0.55 0.54 0.53
0.65 0.38 0.39 0.41 0.32 0.38 0.46 0.38 0.33 0.26 0.30 0.26 0.26 0.30 0.32 0.26 0.20 0.15 0.14 0.13 0.12 0.11 0.13 0.15 0.16 0.19 0.23 0.29 0.34 0.37 0.41 0.42 0.43 0.43 0.43 0.43 0.43 0.42 0.41 0.43 0.45 0.49 0.52 0.56
0.70 0.36 0.38 0.40 0.29 0.31 0.36 0.29 0.26 0.28 0.25 0.17 0.20 0.27 0.31 0.25 0.17 0.12 0.10 0.10 0.09 0.09 0.09 0.09 0.11 0.16 0.22 0.26 0.27 0.29 0.31 0.32 0.33 0.34 0.37 0.38 0.40 0.43 0.48 0.52 0.54 0.58 0.63 0.66
0.67 0.52 0.57 0.38 0.23 0.22 0.24 0.21 0.17 0.17 0.12 0.12 0.16 0.18 0.19 0.20 0.18 0.12 0.07 0.06 0.06 0.06 0.06 0.06 0.09 0.13 0.21 0.28 0.31 0.34 0.37 0.35 0.32 0.33 0.39 0.45 0.51 0.58 0.66 0.74 0.77 0.81 0.85 0.86
0.54 0.42 0.28 0.17 0.13 0.15 0.18 0.18 0.11 0.09 0.07 0.07 0.08 0.15 0.17 0.15 0.16 0.14 0.08 0.05 0.05 0.05 0.06 0.08 0.10 0.12 0.17 0.26 0.33 0.38 0.42 0.46 0.46 0.48 0.56 0.62 0.71 0.80 0.82 0.88 0.89 0.85 0.83 0.81
0.45 0.32 0.14 0.09 0.05 0.05 0.10 0.15 0.07 0.05 0.05 0.04 0.05 0.11 0.14 0.16 0.19 0.20 0.15 0.10 0.07 0.07 0.08 0.11 0.14 0.17 0.23 0.32 0.41 0.48 0.52 0.58 0.60 0.61 0.65 0.67 0.69 0.71 0.71 0.71 0.68 0.62 0.58 0.54
0.35 0.30 0.08 0.04 0.02 0.03 0.09 0.12 0.05 0.06 0.06 0.05 0.06 0.07 0.07 0.11 0.16 0.19 0.20 0.20 0.18 0.18 0.19 0.22 0.26 0.33 0.41 0.47 0.56 0.62 0.62 0.66 0.67 0.64 0.63 0.59 0.52 0.46 0.44 0.42 0.38 0.33 0.30 0.28
0.20 0.30 0.13 0.04 0.04 0.06 0.08 0.04 0.04 0.04 0.05 0.05 0.05 0.04 0.04 0.06 0.10 0.12 0.15 0.20 0.25 0.28 0.29 0.30 0.36 0.44 0.51 0.56 0.58 0.55 0.49 0.45 0.43 0.37 0.34 0.31 0.27 0.25 0.24 0.24 0.23 0.22 0.19 0.17
0.12 0.13 0.07 0.05 0.04 0.04 0.04 0.05 0.04 0.04 0.04 0.05 0.05 0.06 0.05 0.04 0.05 0.06 0.08 0.09 0.13 0.18 0.22 0.22 0.23 0.26 0.29 0.28 0.25 0.23 0.19 0.17 0.16 0.15 0.15 0.15 0.15 0.14 0.14 0.15 0.16 0.15 0.15 0.15
0.11 0.09 0.06 0.05 0.03 0.03 0.04 0.04 0.04 0.04 0.03 0.03 0.04 0.05 0.05 0.05 0.05 0.06 0.07 0.07 0.06 0.07 0.08 0.08 0.07 0.07 0.07 0.07 0.07 0.08 0.08 0.09 0.09 0.09 0.10 0.10 0.10 0.10 0.11 0.12 0.14 0.15 0.16 0.16
0.12 0.08 0.06 0.05 0.03 0.04 0.04 0.03 0.04 0.04 0.04 0.04 0.04 0.05 0.05 0.05 0.05 0.06 0.06 0.06 0.07 0.08 0.08 0.08 0.08 0.08 0.07 0.07 0.07 0.07 0.08 0.09 0.10 0.11 0.12 0.13 0.13 0.13 0.15 0.16 0.19 0.21 0.21 0.21
0.12 0.07 0.06 0.05 0.03 0.03 0.03 0.03 0.03 0.04 0.04 0.04 0.04 0.06 0.06 0.06 0.05 0.05 0.05 0.06 0.07 0.08 0.10 0.10 0.09 0.08 0.09 0.09 0.09 0.10 0.10 0.10 0.11 0.12 0.13 0.14 0.15 0.15 0.18 0.19 0.21 0.23 0.23 0.24
0.05 0.03 0.03 0.03 0.03 0.03 0.03 0.04 0.05 0.05 0.05 0.05 0.05 0.05 0.04 0.05 0.05 0.05 0.05 0.05 0.06 0.07 0.08 0.09 0.09 0.10 0.10 0.11 0.11 0.12 0.12 0.14 0.15 0.16 0.16 0.17 0.18 0.19 0.20 0.23 0.26 0.26 0.25 0.25
0.04 0.04 0.05 0.05 0.04 0.04 0.04 0.05 0.05 0.05 0.05 0.05 0.04 0.04 0.03 0.03 0.03 0.04 0.05 0.06 0.07 0.07 0.08 0.08 0.08 0.09 0.11 0.11 0.11 0.12 0.14 0.15 0.17 0.16 0.18 0.20 0.21 0.21 0.22 0.23 0.23 0.22 0.24 0.29
0.06 0.06 0.07 0.06 0.05 0.04 0.04 0.03 0.03 0.03 0.03 0.02 0.03 0.04 0.05 0.05 0.05 0.05 0.06 0.06 0.07 0.08 0.08 0.08 0.08 0.08 0.09 0.10 0.10 0.12 0.13 0.15 0.16 0.17 0.19 0.21 0.22 0.24 0.24 0.24 0.24 0.23 0.24 0.28
0.06 0.06 0.07 0.07 0.07 0.05 0.04 0.04 0.04 0.05 0.04 0.05 0.05 0.06 0.07 0.07 0.07 0.07 0.07 0.07 0.07 0.08 0.08 0.08 0.08 0.08 0.08 0.09 0.10 0.12 0.13 0.19 0.22 0.21 0.21 0.22 0.23 0.25 0.25 0.25 0.25 0.24 0.24 0.26
0.11 0.10 0.08 0.09 0.09 0.08 0.08 0.08 0.08 0.08 0.08 0.07 0.07 0.07 0.07 0.07 0.06 0.06 0.06 0.06 0.06 0.06 0.06 0.07 0.08 0.09 0.09 0.10 0.12 0.14 0.16 0.19 0.25 0.23 0.20 0.21 0.24 0.26 0.28 0.29 0.28 0.26 0.23 0.27
0.12 0.12 0.11 0.11 0.10 0.10 0.10 0.09 0.09 0.08 0.07 0.07 0.06 0.06 0.06 0.06 0.06 0.06 0.07 0.07 0.07 0.07 0.08 0.08 0.09 0.09 0.10 0.11 0.14 0.16 0.17 0.19 0.20 0.21 0.22 0.26 0.30 0.31 0.32 0.32 0.30 0.29 0.26 0.29
0.11 0.12 0.12 0.12 0.11 0.12 0.12 0.12 0.11 0.09 0.08 0.07 0.07 0.07 0.07 0.08 0.08 0.09 0.09 0.09 0.10 0.10 0.09 0.09 0.12 0.12 0.13 0.14 0.18 0.19 0.20 0.22 0.23 0.24 0.26 0.31 0.35 0.32 0.32 0.33 0.32 0.30 0.30 0.31
0.13 0.14 0.15 0.15 0.14 0.13 0.14 0.13 0.12 0.11 0.10 0.10 0.10 0.10 0.10 0.09 0.10 0.10 0.10 0.11 0.11 0.11 0.10 0.12 0.13 0.13 0.14 0.17 0.21 0.21 0.21 0.23 0.25 0.27 0.30 0.33 0.34 0.32 0.31 0.32 0.32 0.32 0.32 0.32
0.17 0.17 0.17 0.18 0.18 0.17 0.16 0.15 0.15 0.14 0.13 0.13 0.13 0.14 0.13 0.12 0.11 0.11 0.12 0.12 0.11 0.11 0.11 0.13 0.13 0.13 0.15 0.21 0.24 0.23 0.23 0.25 0.29 0.32 0.34 0.35 0.35 0.34 0.33 0.33 0.33 0.33 0.33 0.33
0.17 0.17 0.18 0.18 0.17 0.17 0.16 0.16 0.16 0.16 0.16 0.16 0.16 0.15 0.15 0.14 0.13 0.13 0.13 0.13 0.13 0.15 0.15 0.14 0.14 0.16 0.21 0.25 0.26 0.26 0.28 0.30 0.32 0.33 0.34 0.35 0.35 0.35 0.33 0.33 0.33 0.32 0.32 0.33
0.14 0.15 0.16 0.16 0.16 0.15 0.15 0.16 0.17 0.17 0.17 0.18 0.19 0.20 0.19 0.18 0.17 0.17 0.17 0.15 0.14 0.16 0.16 0.15 0.18 0.22 0.26 0.26 0.26 0.27 0.29 0.31 0.31 0.32 0.32 0.32 0.32 0.32 0.32 0.31 0.30 0.30 0.31 0.31
0.10 0.09 0.09 0.10 0.10 0.11 0.12 0.12 0.13 0.14 0.16 0.18 0.18 0.18 0.19 0.18 0.17 0.16 0.17 0.17 0.16 0.17 0.16 0.17 0.21 0.24 0.26 0.25 0.24 0.27 0.27 0.28 0.28 0.28 0.28 0.27 0.27 0.27 0.28 0.28 0.28 0.27 0.28 0.28
0.06 0.05 0.05 0.06 0.06 0.07 0.08 0.09 0.10 0.11 0.13 0.15 0.15 0.14 0.14 0.15 0.17 0.17 0.16 0.16 0.16 0.17 0.17 0.18 0.20 0.22 0.23 0.22 0.23 0.24 0.24 0.25 0.27 0.28 0.26 0.26 0.25 0.25 0.25 0.25 0.26 0.25 0.25 0.25
0.05 0.04 0.04 0.04 0.04 0.05 0.06 0.07 0.09 0.10 0.11 0.13 0.14 0.14 0.14 0.15 0.16 0.17 0.17 0.17 0.17 0.18 0.19 0.19 0.20 0.20 0.21 0.20 0.21 0.20 0.20 0.21 0.22 0.22 0.22 0.22 0.23 0.23 0.23 0.22 0.23 0.23 0.23 0.23
0.05 0.05 0.05 0.05 0.05 0.06 0.06 0.07 0.08 0.09 0.11 0.13 0.14 0.15 0.16 0.16 0.17 0.17 0.17 0.17 0.17 0.18 0.18 0.18 0.19 0.19 0.19 0.19 0.19 0.18 0.18 0.18 0.19 0.20 0.20 0.21 0.21 0.22 0.22 0.22 0.22 0.22 0.22 0.22